HULIANWANG DIGUI-23

导读 | 豆包AI

“HULIANWANG DIGUI-23”是中国于2025年4月28日发射的低轨卫星,隶属于“互联网”星座体系。作为中国商业航天领域低轨互联网星座建设的重要组成部分,该卫星承担着验证低轨卫星通信技术、推进全球互联网覆盖布局的任务,将为后续星座组网运营积累关键数据,推动天地一体化网络构建。

Basic Information
目录编号:
63690
目录名称:
HULIANWANG DIGUI-23
国际标识:
2025-086D
轨道中心:
EARTH
卫星名称:
HULIANWANG DIGUI-23
卫星全名:
HULIANWANG DIGUI-23
卫星状态:
在轨 (已飞行365 天)
发射日期:
2025-04-28 UTC
国别 :
中国 (CN)
星等 :
--
Orbit Information
数据来源 国际轨道数据 AOE轨道数据
星历时间 2026-04-28T19:53:01+0800
11小时前
查看轨道信息
2026-04-26T07:00:00+0800
3天前
查看轨道信息
半长轴 7546.074km 7546.053km
偏心率 0.0001925 0.0002487
轨道倾角 86.509° 86.509°
近地点辐角 75.069° 89.689°
升交点赤经 329.968° 330.822°
平近点角 285.066° 62.077°
近地点 1166.484km 1166.039km
远地点 1169.39km 1169.793km
周期 108.728分钟 108.728分钟
每日圈数 13.244061 13.244118
Detailed Information
使用方式:
暂无
2D Orbit Map
3D Orbit Map
Orbit Altitude Analysis Chart
Orbit Inclination Analysis Chart
Orbit Comprehensive Analysis Chart
View Comprehensive Chart